C/2021 A7 ( NEOWISE )

Japanese version
Home page
Updated on May 4, 2021

---------------------------------------------------------------------

* Profile

Discovery Date January 9, 2021
Magnitude 20 mag
Discoverer Near-Earth Object Wide-field Infrared Survey Explorer

* Pictures

* Orbital Elements

Epoch 2021 July 5.0 TT = JDT 2459400.5
T 2021 July 15.32356 TT                                 Rudenko
q   1.9677284            (2000.0)            P               Q
z  +0.0001494      Peri.  356.06222     -0.89452977     -0.15013382
 +/-0.0000098      Node   154.51902     +0.43219439     -0.53096083
e   0.9997061      Incl.   78.14930     +0.11412492     +0.83399067
From 212 observations 2021 Jan. 9-May 2, mean residual 0".5.

* Finding Charts

* Magnitudes Graph

        m1 = 10.0 + 5 log d + 10.0 log r

---------------------------------------------------------------------

The orbital elements are published on M.P.E.C. 2021-J28.
The charts are made with StellaNavigator Ver.10 (AstroArts).
The magnitudes graphs are made with Comet for Windows.

---------------------------------------------------------------------

Copyright(C) Seiichi Yoshida (comet@aerith.net). All rights reserved.